Flag for US Virgin Islands Weather past 2 weeks in Charlotte Amalie, US Virgin Islands

Now
85 °F

Scattered clouds.


Feels Like: 92 °F
Forecast: 80 / 87 °F
Wind: 13 mph from Southeast

Location: Cyril E. King International Airport

Current Time: Jun 30, 2015 at 10:56:33 AM

Latest Report: Jun 30, 2015 at 9:53 AM


Visibility: 10 mi

Pressure: 30.10 "Hg

Humidity: 70%

Dew point: 74 °F

Location of Charlotte AmalieLocation

Historic Weather in Charlotte Amalie — Graph

°F

Charlotte Amalie temperature yesterday

Maximum temperature yesterday: 92 °F (at 11:15 AM)
Minimum temperature yesterday: 82 °F (at 12:53 AM)
Average temperature yesterday: 86 °F

Past Weeks' High & Low Weather Summary

 TemperatureHumidityPressure
High92 °F (Jun 29, 11:15 AM)96% (Jun 22, 1:53 PM)30.16 "Hg (Jun 22, 1:53 PM)
Low78 °F (Jun 16, 3:53 AM)39% (Jun 25, 2:38 PM)30.01 "Hg (Jun 15, 4:53 PM)
Average84 °F71%30.09 "Hg
* Reported Jun 15 8:53 AM — Jun 30 8:53 AM, Charlotte Amalie, Weather by CustomWeather, © 2015

Note: Actual official high and low records may vary slightly from our data, if they occured in-between our weather recording intervals... More about our weather records

Advertising

Charlotte Amalie weather history for previous 24 hours

 ConditionsComfort  
Time TempWeatherWind HumidityBarometerVisibility
8:53 AM
Tue, Jun 30
88 °FScattered clouds.20 mph61%30.10 "Hg10 mi
7:53 AM85 °FOvercast.16 mph65%30.09 "Hg10 mi
7:21 AM84 °FPartly sunny.13 mph67%30.10 "Hg10 mi
7:00 AM83 °FPartly sunny.16 mph70%30.09 "Hg10 mi
6:53 AM82 °FScattered clouds.12 mph72%30.09 "Hg10 mi
5:53 AM81 °FOvercast.12 mph72%30.07 "Hg10 mi
4:53 AM80 °FOvercast.7 mph71%30.06 "Hg10 mi
3:53 AM81 °FOvercast.12 mph72%30.06 "Hg10 mi
2:53 AM81 °FOvercast.12 mph69%30.06 "Hg10 mi
1:53 AM82 °FOvercast.10 mph70%30.07 "Hg10 mi
12:53 AM81 °FOvercast.8 mph72%30.08 "Hg10 mi
11:53 PM
Mon, Jun 29
82 °FOvercast.12 mph70%30.10 "Hg10 mi
10:53 PM82 °FOvercast.13 mph70%30.11 "Hg10 mi
9:53 PM83 °FOvercast.14 mph68%30.12 "Hg10 mi
8:53 PM83 °FOvercast.13 mph68%30.10 "Hg10 mi
7:53 PM83 °FMostly cloudy.9 mph72%30.09 "Hg10 mi
6:53 PM84 °FMostly cloudy.17 mph67%30.08 "Hg10 mi
5:53 PM85 °FMostly cloudy.16 mph65%30.06 "Hg10 mi
5:01 PM86 °FMostly cloudy.17 mph65%30.06 "Hg10 mi
3:53 PM89 °FPassing clouds.16 mph57%30.06 "Hg10 mi
2:53 PM91 °FMostly cloudy.16 mph56%30.07 "Hg10 mi
2:36 PM90 °FMostly cloudy.17 mph59%30.08 "Hg9 mi
1:53 PM89 °FScattered clouds.17 mph59%30.09 "Hg10 mi
12:53 PM90 °FPassing clouds.16 mph56%30.11 "Hg10 mi
11:53 AM91 °FPassing clouds.17 mph52%30.12 "Hg10 mi
11:15 AM92 °FMostly cloudy.17 mph51%30.12 "Hg10 mi
10:53 AM91 °FScattered clouds.21 mph52%30.13 "Hg10 mi
10:32 AM90 °FScattered clouds.15 mph52%30.13 "Hg10 mi
Weather by CustomWeather, © 2015

See weather overviewHow to use our weather pages